• In Italy
  • List of Countries
  • For 7 days
  • Water Temperature
  • Satellite Maps
  • Weather Map
  • Weather Widgets
  • user-avatar
    Login

    Hourly Weather Mieczyno

    Today, 24 September, Monday

    Time Temperature Precipitation Wind Pressure Humidity
    00:00 +8°C° 1.9 mm 5 mps 739 mmHg 91%
    01:00 +8°C° 0 mm 7 mps 738 mmHg 89%
    02:00 +8°C° 1 mm 7 mps 739 mmHg 88%
    03:00 +6°C° 1 mm 7 mps 741 mmHg 87%
    04:00 +6°C° 1 mm 7 mps 742 mmHg 86%
    05:00 +8°C° 0.1 mm 7 mps 743 mmHg 84%
    06:00 +7°C° 0.1 mm 8 mps 744 mmHg 83%
    07:00 +7°C° 0 mm 8 mps 745 mmHg 82%
    08:00 +8°C° 0 mm 9 mps 745 mmHg 78%
    09:00 +8°C° 0 mm 9 mps 746 mmHg 73%
    10:00 +9°C° 0 mm 10 mps 746 mmHg 68%
    11:00 +10°C° 0.2 mm 9 mps 747 mmHg 65%
    12:00 +11°C° 0.2 mm 9 mps 747 mmHg 62%
    13:00 +11°C° 0.2 mm 9 mps 748 mmHg 59%
    14:00 +11°C° 0.3 mm 9 mps 748 mmHg 60%
    15:00 +10°C° 0.3 mm 8 mps 749 mmHg 60%
    16:00 +10°C° 0.3 mm 7 mps 749 mmHg 61%
    17:00 +9°C° 0.1 mm 6 mps 750 mmHg 63%
    18:00 +8°C° 0.1 mm 6 mps 750 mmHg 66%
    19:00 +7°C° 0.1 mm 5 mps 751 mmHg 68%
    20:00 +7°C° 0 mm 5 mps 752 mmHg 68%
    21:00 +6°C° 0 mm 5 mps 752 mmHg 69%
    22:00 +6°C° 0 mm 5 mps 753 mmHg 69%
    23:00 +6°C° 0 mm 5 mps 753 mmHg 70%

    Tomorrow, 25 September, Tuesday

    Time Temperature Precipitation Wind Pressure Humidity
    00:00 +6°C° 0 mm 5 mps 754 mmHg 71%
    01:00 +5°C° 0 mm 5 mps 754 mmHg 72%
    02:00 +5°C° 0 mm 5 mps 755 mmHg 74%
    03:00 +5°C° 0 mm 5 mps 755 mmHg 75%
    04:00 +5°C° 0 mm 5 mps 755 mmHg 77%
    05:00 +5°C° 0 mm 5 mps 756 mmHg 75%
    06:00 +6°C° 0 mm 5 mps 757 mmHg 73%
    07:00 +5°C° 0 mm 6 mps 757 mmHg 71%
    08:00 +7°C° 0 mm 6 mps 758 mmHg 64%
    09:00 +9°C° 0 mm 7 mps 759 mmHg 57%
    10:00 +10°C° 0 mm 7 mps 759 mmHg 50%
    11:00 +10°C° 0.1 mm 7 mps 760 mmHg 48%
    12:00 +11°C° 0.1 mm 7 mps 760 mmHg 46%
    13:00 +11°C° 0.1 mm 7 mps 760 mmHg 45%
    14:00 +11°C° 0 mm 7 mps 761 mmHg 45%
    15:00 +11°C° 0 mm 6 mps 761 mmHg 45%
    16:00 +10°C° 0 mm 6 mps 761 mmHg 46%
    17:00 +9°C° 0 mm 5 mps 762 mmHg 50%
    18:00 +8°C° 0 mm 4 mps 762 mmHg 54%
    19:00 +7°C° 0 mm 3 mps 763 mmHg 58%
    20:00 +7°C° 0 mm 2 mps 763 mmHg 58%
    21:00 +6°C° 0 mm 2 mps 763 mmHg 59%
    22:00 +6°C° 0 mm 2 mps 764 mmHg 59%
    23:00 +6°C° 0 mm 2 mps 764 mmHg 60%

    Day after tomorrow, 26 September, Wednesday

    Time Temperature Precipitation Wind Pressure Humidity
    00:00 +6°C° 0 mm 2 mps 764 mmHg 61%
    01:00 +5°C° 0 mm 2 mps 764 mmHg 61%
    02:00 +4°C° 0 mm 3 mps 764 mmHg 65%
    03:00 +4°C° 0 mm 3 mps 764 mmHg 69%
    04:00 +4°C° 0 mm 3 mps 763 mmHg 73%
    05:00 +4°C° 0 mm 3 mps 763 mmHg 72%
    06:00 +5°C° 0 mm 4 mps 763 mmHg 71%
    07:00 +5°C° 0 mm 4 mps 763 mmHg 70%
    08:00 +7°C° 0 mm 5 mps 763 mmHg 64%
    09:00 +9°C° 0 mm 6 mps 763 mmHg 57%
    10:00 +11°C° 0 mm 6 mps 763 mmHg 51%
    11:00 +11°C° 0 mm 7 mps 762 mmHg 49%
    12:00 +12°C° 0 mm 7 mps 762 mmHg 47%
    13:00 +12°C° 0 mm 7 mps 761 mmHg 45%
    14:00 +12°C° 0.1 mm 7 mps 761 mmHg 49%
    15:00 +11°C° 0.1 mm 6 mps 760 mmHg 53%
    16:00 +10°C° 0.1 mm 6 mps 759 mmHg 56%
    17:00 +10°C° 0.1 mm 6 mps 759 mmHg 58%
    18:00 +10°C° 0.1 mm 6 mps 759 mmHg 60%
    19:00 +10°C° 0.1 mm 6 mps 758 mmHg 62%
    20:00 +10°C° 0 mm 6 mps 758 mmHg 58%
    21:00 +10°C° 0 mm 7 mps 758 mmHg 55%
    22:00 +11°C° 0 mm 7 mps 757 mmHg 52%
    23:00 +11°C° 0 mm 7 mps 757 mmHg 52%

    27 September, Thursday

    Time Temperature Precipitation Wind Pressure Humidity
    00:00 +11°C° 0 mm 7 mps 756 mmHg 53%
    01:00 +11°C° 0 mm 7 mps 756 mmHg 54%
    02:00 +10°C° 0 mm 7 mps 756 mmHg 56%
    03:00 +10°C° 0 mm 7 mps 756 mmHg 59%
    04:00 +10°C° 0 mm 7 mps 755 mmHg 61%
    05:00 +10°C° 0 mm 7 mps 755 mmHg 63%
    06:00 +10°C° 0 mm 7 mps 755 mmHg 66%
    07:00 +10°C° 0 mm 7 mps 755 mmHg 68%
    08:00 +12°C° 0 mm 7 mps 756 mmHg 67%
    09:00 +14°C° 0 mm 7 mps 756 mmHg 67%
    10:00 +15°C° 0 mm 8 mps 756 mmHg 66%
    11:00 +16°C° 0 mm 8 mps 756 mmHg 65%
    12:00 +17°C° 0 mm 7 mps 755 mmHg 64%
    13:00 +18°C° 0 mm 7 mps 755 mmHg 63%
    14:00 +18°C° 0 mm 7 mps 755 mmHg 65%
    15:00 +17°C° 0 mm 6 mps 755 mmHg 66%
    16:00 +17°C° 0 mm 6 mps 755 mmHg 68%
    17:00 +16°C° 0 mm 5 mps 755 mmHg 71%
    18:00 +15°C° 0 mm 5 mps 755 mmHg 75%
    19:00 +15°C° 0 mm 4 mps 755 mmHg 79%
    20:00 +14°C° 0 mm 4 mps 755 mmHg 82%
    21:00 +14°C° 0 mm 4 mps 754 mmHg 85%
    22:00 +13°C° 0 mm 4 mps 754 mmHg 88%
    23:00 +13°C° 0 mm 4 mps 754 mmHg 88%

    28 September, Friday

    Time Temperature Precipitation Wind Pressure Humidity
    00:00 +13°C° 0 mm 4 mps 753 mmHg 88%
    01:00 +13°C° 0 mm 5 mps 753 mmHg 88%
    02:00 +13°C° 0 mm 5 mps 752 mmHg 88%
    03:00 +13°C° 0 mm 5 mps 752 mmHg 87%
    04:00 +13°C° 0 mm 5 mps 751 mmHg 87%
    05:00 +13°C° 0 mm 5 mps 751 mmHg 85%
    06:00 +13°C° 0 mm 5 mps 751 mmHg 82%
    07:00 +14°C° 0 mm 5 mps 751 mmHg 80%
    08:00 +15°C° 0 mm 6 mps 751 mmHg 75%
    09:00 +16°C° 0 mm 6 mps 751 mmHg 70%
    10:00 +17°C° 0 mm 6 mps 751 mmHg 65%
    11:00 +17°C° 0 mm 6 mps 751 mmHg 63%
    12:00 +17°C° 0 mm 6 mps 751 mmHg 62%
    13:00 +17°C° 0 mm 6 mps 751 mmHg 60%
    14:00 +17°C° 0 mm 5 mps 751 mmHg 60%
    15:00 +16°C° 0 mm 5 mps 751 mmHg 60%
    16:00 +15°C° 0 mm 4 mps 751 mmHg 60%
    17:00 +14°C° 0 mm 4 mps 752 mmHg 62%
    18:00 +13°C° 0 mm 3 mps 752 mmHg 65%
    19:00 +11°C° 0 mm 3 mps 752 mmHg 68%
    20:00 +11°C° 0 mm 3 mps 752 mmHg 68%
    21:00 +11°C° 0 mm 3 mps 753 mmHg 68%
    22:00 +11°C° 0 mm 3 mps 753 mmHg 68%
    23:00 +10°C° 0.1 mm 3 mps 753 mmHg 71%

    29 September, Saturday

    Time Temperature Precipitation Wind Pressure Humidity
    00:00 +10°C° 0.1 mm 2 mps 753 mmHg 73%
    01:00 +10°C° 0.1 mm 2 mps 753 mmHg 75%
    02:00 +9°C° 0 mm 2 mps 754 mmHg 78%
    03:00 +8°C° 0 mm 2 mps 754 mmHg 81%
    04:00 +7°C° 0 mm 2 mps 754 mmHg 84%
    05:00 +7°C° 0 mm 2 mps 755 mmHg 82%
    06:00 +7°C° 0 mm 3 mps 755 mmHg 80%
    07:00 +8°C° 0 mm 3 mps 756 mmHg 78%
    08:00 +9°C° 0 mm 3 mps 756 mmHg 69%
    09:00 +10°C° 0 mm 3 mps 757 mmHg 60%
    10:00 +12°C° 0 mm 3 mps 757 mmHg 50%
    11:00 +12°C° 0 mm 3 mps 757 mmHg 47%
    12:00 +12°C° 0 mm 3 mps 757 mmHg 45%
    13:00 +13°C° 0 mm 3 mps 757 mmHg 42%
    14:00 +13°C° 0 mm 3 mps 757 mmHg 42%
    15:00 +13°C° 0 mm 2 mps 757 mmHg 43%
    16:00 +13°C° 0 mm 2 mps 757 mmHg 44%
    17:00 +12°C° 0 mm 2 mps 758 mmHg 48%
    18:00 +10°C° 0 mm 1 mps 758 mmHg 52%
    19:00 +9°C° 0 mm 1 mps 758 mmHg 55%
    20:00 +9°C° 0 mm 1 mps 758 mmHg 56%
    21:00 +8°C° 0 mm 1 mps 758 mmHg 57%
    22:00 +8°C° 0 mm 1 mps 759 mmHg 58%
    23:00 +8°C° 0 mm 1 mps 759 mmHg 59%
    Show more